Weather History for Dayton Wright, OH

Change the Weather History Date:

Tuesday, February 5, 2013

  Actual Average (KFFO) Record (KFFO)
Temperature  
Mean Temperature 30 °F -  
Max Temperature 35 °F 38 °F 62 °F (2008)
Min Temperature 24 °F 21 °F -2 °F (2007)
Degree Days  
Heating Degree Days 36    
Moisture  
Dew Point 25 °F    
Average Humidity 83    
Maximum Humidity 96    
Minimum Humidity 72    
Precipitation  
Precipitation 0.00 in - - ()
Sea Level Pressure  
Sea Level Pressure 29.90 in    
Wind  
Wind Speed 5 mph (WNW)    
Max Wind Speed 13 mph    
Max Gust Speed 21 mph    
Visibility 5 miles    
Events      
Averages and records for this station are not official NWS values.
T = Trace of Precipitation, MM = Missing Value Source: NWS Daily Summary

Daily Weather History Graph

Daily Weather History Graph

Search for Another Location

Airport:

Trip Planner

Search our weather history database for the weather conditions in past years. The results will help you decide how hot, cold, wet, or windy it might be!

Date:

Astronomy

Feb. 05, 2013 Rise Set
Actual Time 7:40 AM EST 6:02 PM EST
Civil Twilight 7:12 AM EST 6:30 PM EST
Nautical Twilight 6:40 AM EST 7:02 PM EST
Astronomical Twilight 6:08 AM EST 7:33 PM EST
Moon 3:20 AM EST (2/5) 1:19 PM EST (2/5)
Length of Visible Light 11h 17m
Length of Day
10h 21m
Waning Crescent, 27% of the Moon is Illuminated
Feb 5
Waning Crescent
Feb 10
New
Feb 17
First Quarter
Feb 25
Full
Mar 4
Last Quarter

Hourly Weather History & Observations

Time (EST) Temp. Windchill Dew Point Humidity Pressure Visibility Wind Dir Wind Speed Gust Speed Precip Events Conditions
12:53 AM 33.1 °F - 32.0 °F 96% 29.87 in 5.0 mi Calm Calm - N/A   Overcast
1:07 AM 33.8 °F 30.8 °F 30.2 °F 87% 29.85 in 5.0 mi West 3.5 mph - N/A   Overcast
1:15 AM 33.8 °F 29.6 °F 30.2 °F 87% 29.85 in 5.0 mi West 4.6 mph - N/A   Overcast
1:41 AM 32.0 °F 26.4 °F 30.2 °F 93% 29.85 in 3.0 mi NNW 5.8 mph - N/A   Overcast
1:53 AM 30.9 °F 24.3 °F 30.0 °F 96% 29.88 in 3.0 mi NNW 6.9 mph - N/A   Overcast
2:36 AM 28.4 °F 19.7 °F 26.6 °F 93% 29.86 in 5.0 mi North 9.2 mph - N/A   Overcast
2:53 AM 28.9 °F 20.4 °F 26.1 °F 89% 29.89 in 5.0 mi North 9.2 mph - N/A   Overcast
3:18 AM 28.4 °F 19.7 °F 24.8 °F 86% 29.85 in 6.0 mi North 9.2 mph - N/A   Overcast
3:53 AM 28.0 °F 20.8 °F 24.1 °F 85% 29.88 in 6.0 mi NNE 6.9 mph - N/A   Overcast
4:53 AM 27.0 °F 21.6 °F 24.1 °F 89% 29.89 in 5.0 mi North 4.6 mph - N/A   Overcast
5:53 AM 26.1 °F 19.4 °F 23.0 °F 88% 29.89 in 4.0 mi North 5.8 mph - N/A   Overcast
6:10 AM 26.6 °F 21.2 °F 23.0 °F 86% 29.86 in 4.0 mi North 4.6 mph - N/A   Overcast
6:19 AM 26.6 °F 20.0 °F 23.0 °F 86% 29.87 in 4.0 mi North 5.8 mph - N/A   Overcast
6:53 AM 26.1 °F 21.9 °F 23.0 °F 88% 29.91 in 4.0 mi North 3.5 mph - N/A   Overcast
7:53 AM 25.0 °F 17.1 °F 21.9 °F 88% 29.93 in 3.0 mi NNW 6.9 mph - N/A   Overcast
8:06 AM 24.8 °F 17.9 °F 21.2 °F 86% 29.90 in 2.5 mi NNW 5.8 mph - N/A   Overcast
8:53 AM 25.0 °F 20.7 °F 21.9 °F 88% 29.95 in 2.5 mi WNW 3.5 mph - N/A   Overcast
9:53 AM 25.0 °F 19.3 °F 21.0 °F 85% 29.95 in 3.0 mi NNW 4.6 mph - N/A   Overcast
10:09 AM 24.8 °F 16.9 °F 21.2 °F 86% 29.93 in 3.0 mi NNW 6.9 mph - N/A   Scattered Clouds
11:53 AM 28.0 °F 22.8 °F 21.9 °F 78% 29.96 in 6.0 mi West 4.6 mph - N/A   Haze
12:53 PM 28.9 °F 21.9 °F 21.9 °F 75% 29.93 in 6.0 mi SSW 6.9 mph - N/A   Haze
1:53 PM 30.0 °F 23.2 °F 21.9 °F 72% 29.89 in 6.0 mi South 6.9 mph - N/A   Haze
2:53 PM 30.9 °F 23.5 °F 23.0 °F 72% 29.89 in 6.0 mi SSW 8.1 mph - N/A   Haze
3:53 PM 32.0 °F 23.6 °F 24.1 °F 73% 29.88 in 5.0 mi SSW 10.4 mph - N/A   Haze
4:53 PM 33.1 °F 25.5 °F 26.1 °F 75% 29.86 in 6.0 mi SSW 9.2 mph - N/A   Haze
5:53 PM 34.0 °F 28.8 °F 27.0 °F 75% 29.87 in 5.0 mi SSW 5.8 mph - N/A   Haze
6:53 PM 34.0 °F 31.0 °F 28.0 °F 79% 29.90 in 6.0 mi WSW 3.5 mph - N/A   Haze
7:53 PM 34.0 °F 28.8 °F 28.0 °F 79% 29.94 in 7.0 mi West 5.8 mph - N/A   Overcast
8:11 PM 33.8 °F 26.4 °F 28.4 °F 81% 29.91 in 8.0 mi West 9.2 mph - N/A   Overcast
8:53 PM 34.0 °F 28.0 °F 28.0 °F 79% 29.95 in 8.0 mi West 6.9 mph - N/A   Overcast
9:53 PM 35.1 °F 30.1 °F 28.0 °F 76% 29.97 in 8.0 mi West 5.8 mph - N/A   Overcast
10:53 PM 35.1 °F 26.4 °F 28.9 °F 78% 30.00 in 8.0 mi WNW 12.7 mph 20.7 mph N/A   Overcast
11:53 PM 34.0 °F 26.0 °F 28.0 °F 79% 30.01 in 9.0 mi WNW 10.4 mph 18.4 mph N/A   Overcast